DAL886 KTUS-KATL

Flight info

Callsign DAL886
Flight time N/A
Altitude 35000
Route WLDKT4 SSO J50 ALIBY DCT EWM DCT LBB DCT ADM DCT LIT DCT MEMFS DCT HUTCC DCT KNSAW DCT RUSSA GLAVN2
Aircraft B739/M-SDE2E3FGHIRWXY/LB1

Departure

Time N/A
Airport Tucson International Airport (KTUS)

Arrival

Time 2026-05-05 20:42
Airport Hartsfield Jackson Atlanta International Airport (KATL)
Time Latitude Longitude Altitude Speed Heading
2026-05-05 20:08 34.80992 -88.56883 34914 ft 552 kts 98°
2026-05-05 20:08 34.79602 -88.47708 34920 ft 551 kts 98°
2026-05-05 20:09 34.78214 -88.38601 34922 ft 551 kts 98°
2026-05-05 20:09 34.76813 -88.29448 34930 ft 550 kts 98°
2026-05-05 20:10 34.75404 -88.20294 34928 ft 550 kts 98°
2026-05-05 20:10 34.73988 -88.11144 34939 ft 550 kts 98°
2026-05-05 20:11 34.72568 -88.02011 34939 ft 549 kts 98°
2026-05-05 20:11 34.71143 -87.92904 34932 ft 548 kts 97°
2026-05-05 20:12 34.69714 -87.83803 34937 ft 548 kts 97°
2026-05-05 20:12 34.68279 -87.74711 34944 ft 548 kts 98°
2026-05-05 20:13 34.66834 -87.65606 34936 ft 550 kts 97°
2026-05-05 20:13 34.65379 -87.56486 34928 ft 549 kts 98°
2026-05-05 20:14 34.63929 -87.47436 34948 ft 549 kts 98°
2026-05-05 20:14 34.62421 -87.38347 34969 ft 551 kts 99°
2026-05-05 20:15 34.60718 -87.29248 34951 ft 552 kts 100°
2026-05-05 20:15 34.59007 -87.20186 34965 ft 549 kts 99°
2026-05-05 20:16 34.57334 -87.11165 34957 ft 546 kts 99°
2026-05-05 20:16 34.55766 -87.02178 34955 ft 543 kts 98°
2026-05-05 20:17 34.54272 -86.93224 34974 ft 541 kts 99°
2026-05-05 20:17 34.52127 -86.84460 34972 ft 542 kts 107°
2026-05-05 20:18 34.49718 -86.75871 34964 ft 541 kts 106°
2026-05-05 20:18 34.47452 -86.67187 34970 ft 540 kts 105°
2026-05-05 20:19 34.45190 -86.58497 34984 ft 541 kts 105°
2026-05-05 20:19 34.42907 -86.49809 34999 ft 542 kts 105°
2026-05-05 20:20 34.40614 -86.41111 34988 ft 542 kts 105°
2026-05-05 20:20 34.38304 -86.32369 35011 ft 543 kts 105°
2026-05-05 20:21 34.36011 -86.23717 34977 ft 545 kts 105°
2026-05-05 20:21 34.34845 -86.19324 34731 ft 550 kts 105°
2026-05-05 20:21 34.33671 -86.14913 34505 ft 547 kts 105°
2026-05-05 20:21 34.32523 -86.10561 34275 ft 542 kts 105°
2026-05-05 20:22 34.31391 -86.06206 33666 ft 542 kts 105°
2026-05-05 20:22 34.30266 -86.01842 32913 ft 544 kts 105°
2026-05-05 20:22 34.29152 -85.97518 32177 ft 544 kts 105°
2026-05-05 20:22 34.28022 -85.93145 31426 ft 545 kts 106°
2026-05-05 20:23 34.26887 -85.88772 30648 ft 545 kts 106°
2026-05-05 20:23 34.25746 -85.84392 29767 ft 546 kts 107°
2026-05-05 20:23 34.24604 -85.80022 28817 ft 544 kts 107°
2026-05-05 20:23 34.23468 -85.75690 27912 ft 537 kts 107°
2026-05-05 20:24 34.22349 -85.71423 27001 ft 530 kts 107°
2026-05-05 20:24 34.21237 -85.67193 26073 ft 525 kts 107°
2026-05-05 20:24 34.20131 -85.62986 25120 ft 526 kts 108°
2026-05-05 20:24 34.19018 -85.58760 24113 ft 531 kts 108°
2026-05-05 20:25 34.17896 -85.54504 23303 ft 529 kts 108°
2026-05-05 20:25 34.16796 -85.50339 22602 ft 523 kts 108°
2026-05-05 20:25 34.15706 -85.46217 21962 ft 513 kts 108°
2026-05-05 20:25 34.14618 -85.42110 21020 ft 507 kts 108°
2026-05-05 20:26 34.13566 -85.38140 20386 ft 490 kts 108°
2026-05-05 20:26 34.12548 -85.34232 19552 ft 483 kts 108°
2026-05-05 20:26 34.11557 -85.30391 18805 ft 473 kts 108°
2026-05-05 20:26 34.10593 -85.26655 18097 ft 462 kts 108°
2026-05-05 20:27 34.09646 -85.22990 17335 ft 452 kts 108°
2026-05-05 20:27 34.08715 -85.19402 16648 ft 442 kts 108°
2026-05-05 20:27 34.07805 -85.15900 15997 ft 434 kts 109°
2026-05-05 20:27 34.06905 -85.12448 15368 ft 429 kts 109°
2026-05-05 20:28 34.06003 -85.08998 14754 ft 436 kts 109°
2026-05-05 20:28 34.04861 -85.05603 14254 ft 435 kts 124°
2026-05-05 20:28 34.02975 -85.02859 14138 ft 420 kts 141°
2026-05-05 20:28 34.00770 -85.00567 14067 ft 418 kts 144°
2026-05-05 20:29 33.98532 -84.98336 14026 ft 416 kts 144°
2026-05-05 20:29 33.96342 -84.96129 14033 ft 416 kts 143°
2026-05-05 20:29 33.94135 -84.93861 14018 ft 417 kts 143°
2026-05-05 20:29 33.91936 -84.91580 14013 ft 417 kts 143°
2026-05-05 20:30 33.89742 -84.89302 14014 ft 416 kts 143°
2026-05-05 20:30 33.87544 -84.87026 14024 ft 416 kts 143°
2026-05-05 20:30 33.85358 -84.84766 14017 ft 417 kts 143°
2026-05-05 20:30 33.83157 -84.82492 14010 ft 417 kts 143°
2026-05-05 20:31 33.80953 -84.80215 14018 ft 417 kts 143°
2026-05-05 20:31 33.78769 -84.77959 14007 ft 408 kts 143°
2026-05-05 20:31 33.76668 -84.75787 14002 ft 390 kts 143°
2026-05-05 20:31 33.74776 -84.73581 13898 ft 382 kts 129°
2026-05-05 20:32 33.73597 -84.70778 13824 ft 374 kts 109°
2026-05-05 20:32 33.73182 -84.67735 13735 ft 362 kts 91°
2026-05-05 20:32 33.73206 -84.64779 13641 ft 345 kts 89°
2026-05-05 20:32 33.73253 -84.61973 13521 ft 329 kts 89°
2026-05-05 20:33 33.73280 -84.59298 13469 ft 309 kts 90°
2026-05-05 20:33 33.73294 -84.56801 13334 ft 291 kts 90°
2026-05-05 20:33 33.73298 -84.54402 12910 ft 285 kts 90°
2026-05-05 20:33 33.73298 -84.52028 12341 ft 285 kts 90°
2026-05-05 20:34 33.73298 -84.49655 11842 ft 283 kts 90°
2026-05-05 20:34 33.73297 -84.47305 11355 ft 280 kts 90°
2026-05-05 20:34 33.73296 -84.44973 10854 ft 277 kts 90°
2026-05-05 20:34 33.73295 -84.42696 10384 ft 274 kts 90°
2026-05-05 20:35 33.73295 -84.40420 9882 ft 272 kts 91°
2026-05-05 20:35 33.73296 -84.38160 9363 ft 268 kts 91°
2026-05-05 20:35 33.73297 -84.35940 8874 ft 264 kts 91°
2026-05-05 20:35 33.73296 -84.33760 8412 ft 259 kts 92°
2026-05-05 20:36 33.73296 -84.31623 7926 ft 256 kts 92°
2026-05-05 20:36 33.73296 -84.29497 7476 ft 252 kts 93°
2026-05-05 20:36 33.73299 -84.27407 7034 ft 247 kts 94°
2026-05-05 20:36 33.73302 -84.25361 6579 ft 243 kts 94°
2026-05-05 20:37 33.73306 -84.23380 6345 ft 228 kts 94°
2026-05-05 20:37 33.73084 -84.21616 6149 ft 200 kts 124°
2026-05-05 20:37 33.72118 -84.20608 5728 ft 180 kts 168°
2026-05-05 20:37 33.70901 -84.20352 5230 ft 180 kts 174°
2026-05-05 20:38 33.69668 -84.20150 4847 ft 178 kts 174°
2026-05-05 20:38 33.68459 -84.20311 4354 ft 182 kts 210°
2026-05-05 20:38 33.67652 -84.21474 4040 ft 181 kts 235°
2026-05-05 20:38 33.67041 -84.22727 3942 ft 173 kts 234°
2026-05-05 20:39 33.66390 -84.24026 3726 ft 187 kts 233°
2026-05-05 20:39 33.65722 -84.25372 3486 ft 188 kts 234°
2026-05-05 20:39 33.65082 -84.26740 3295 ft 190 kts 244°
2026-05-05 20:39 33.65014 -84.28312 3097 ft 190 kts 274°
2026-05-05 20:40 33.65054 -84.29884 2836 ft 186 kts 252°
2026-05-05 20:40 33.64855 -84.31398 2784 ft 185 kts 258°
2026-05-05 20:40 33.64836 -84.32989 2432 ft 196 kts 268°
2026-05-05 20:40 33.64953 -84.34604 2078 ft 192 kts 270°
2026-05-05 20:41 33.64994 -84.36112 1902 ft 169 kts 261°
2026-05-05 20:41 33.64940 -84.37476 1620 ft 162 kts 266°
2026-05-05 20:41 33.64972 -84.38849 1411 ft 165 kts 265°
2026-05-05 20:41 33.64954 -84.40204 1173 ft 159 kts 266°
2026-05-05 20:42 33.64956 -84.41513 1023 ft 146 kts 266°
2026-05-05 20:42 33.64979 -84.42542 1006 ft 68 kts 323°
2026-05-05 20:42 33.64982 -84.42798 1005 ft 29 kts 242°
2026-05-05 20:42 33.64950 -84.43028 1005 ft 27 kts 262°
2026-05-05 20:43 33.64903 -84.43241 1006 ft 26 kts 243°
2026-05-05 20:43 33.64784 -84.43390 1006 ft 24 kts 217°
2026-05-05 20:43 33.64655 -84.43507 1007 ft 23 kts 216°
2026-05-05 20:43 33.64532 -84.43622 1005 ft 22 kts 223°
2026-05-05 20:44 33.64417 -84.43743 1005 ft 22 kts 212°
2026-05-05 20:44 33.64274 -84.43734 1005 ft 21 kts 174°